This is the latest recevied weather packets stored in our database for station/object IZ1RFL-3. If no packets are shown the sender has not sent any weather packets the latest 10 day(s).
| Time | Temp. | Humidity | Pressure | Rain* | Wind** | Luminosity | Snow |
|---|---|---|---|---|---|---|---|
| 1778227268 | 18.33° C | 61% | 1017.6 hPa | - | - | - | - |
| 1778226368 | 17.78° C | 62% | 1017.4 hPa | - | - | - | - |
| 1778225468 | 16.67° C | 65% | 1017.4 hPa | - | - | - | - |
| 1778224568 | 16.11° C | 67% | 1017.1 hPa | - | - | - | - |
| 1778223668 | 16.11° C | 67% | 1017 hPa | - | - | - | - |
| 1778222768 | 15° C | 70% | 1017.1 hPa | - | - | - | - |
| 1778221868 | 13.89° C | 73% | 1017.1 hPa | - | - | - | - |
| 1778220968 | 13.89° C | 74% | 1016.9 hPa | - | - | - | - |
| 1778220068 | 13.33° C | 75% | 1016.6 hPa | - | - | - | - |
| 1778219168 | 12.78° C | 75% | 1016.3 hPa | - | - | - | - |
| 1778218268 | 12.78° C | 76% | 1016.2 hPa | - | - | - | - |
| 1778217368 | 12.78° C | 76% | 1016.2 hPa | - | - | - | - |
| 1778216468 | 12.78° C | 74% | 1016.2 hPa | - | - | - | - |
| 1778215568 | 12.22° C | 76% | 1016 hPa | - | - | - | - |
| 1778214668 | 12.22° C | 76% | 1015.8 hPa | - | - | - | - |
| 1778213768 | 12.78° C | 74% | 1015.7 hPa | - | - | - | - |
| 1778212868 | 12.22° C | 75% | 1015.6 hPa | - | - | - | - |
| 1778211968 | 12.22° C | 76% | 1015.5 hPa | - | - | - | - |
| 1778211068 | 11.67° C | 79% | 1015.5 hPa | - | - | - | - |
| 1778210168 | 12.78° C | 74% | 1015.3 hPa | - | - | - | - |
| 1778209268 | 12.78° C | 74% | 1015.3 hPa | - | - | - | - |
| 1778208368 | 12.78° C | 74% | 1015.3 hPa | - | - | - | - |
| 1778207468 | 13.33° C | 73% | 1015.2 hPa | - | - | - | - |
| 1778206568 | 13.33° C | 73% | 1015.2 hPa | - | - | - | - |
| 1778205668 | 13.33° C | 74% | 1015.2 hPa | - | - | - | - |
* Rain since midnight (hover to see other rain measurements)
** Current wind speed in m/s (hover to see current wind gust speed)